Showing default

COSMOS 1911, 18790

Orbit data source: Space-Track

COSMOS 1911, 18790 is a payload satellite owned by UNKS (CIS) in LEO that was launched on Fri, 15 Jan 1988 UTC via a TSIKLON-3 launch vehicle from the Plesetsk Missile And Space Complex (PKMTR). Payload-class satellites include a variety of spacecraft equipped with specific instruments for various scientific and technological missions. These include communications satellites like Starlink; space stations such as the ISS; scientific satellites like the Hubble; Earth observation satellites from companies like Planet Labs, Umbra, and HawkEye 360; GPS; miniature CubeSats for education and research; and military/defense satellites.

Loading next visibility...
Identifier
18790, 1988-002C
Orbit
LEO
Country
Flag of CISCIS
Related business
Manufacturer
NPO PM
Mission
Defense Communications
Bus & Motor
STRELA-3, Unknown motor
Mass
225 kg wet, 225 kg dry
Launch date (UTC)
1988-01-15 (38 years ago)
Launch vehicle
TSIKLON-3
Launch site
Plesetsk Missile And Space Complex (PKMTR)
Object type
Payload
Rocket body
Debris
Shape & HBR
Cyl, 0.8 m
Radar Cross Section
1.257 m², Large (>1 m²)

Expand to show TLE details & history
Last TLE update: 18 hours ago

TLE from 18 hours ago
0 COSMOS 1911
1 18790U 88002C   25259.97062192  .00000045  00000-0  18849-3 0  9994
2 18790  82.6053  62.8320 0007831  40.7578  76.8768 12.64375542738427
Epoch: 2025-09-16T23:17Z
TLE epoch observation values (Epoch: 2025-09-16T23:17:41.733Z)
Latitude
61.47093°
Longitude
-116.48791°
Altitude
1,414.031 km
Speed
7.16 km/s
True Right ascension
15h 16m 21s
True Declination
61° 20' 19"
Sunlit
Object was in daylight at epoch
Visualization orbit readout
Latitude
Unknown
Longitude
Unknown
Altitude
Unknown
Speed
Unknown
Apparent Right ascension
Unknown
Apparent Declination
Unknown
Sunlit
N/A
Visualization observer readout
Local Sidereal Time
09:38:39
Azimuth
Unknown
Elevation
Unknown
Doppler factor
Unknown
Orbital elements
Apogee altitude
1,408.346 km
Perigee altitude
1,396.16 km
Semi-major axis
7,780.39 km
Eccentricity
0.00078
Inclination
82.6053°
RAAN
62.832°
Arg. of periapsis
40.7578°
True anomaly
76.96421°
Mean anomaly
76.8768°
Eccentric anomaly
76.9205°
Mean motion
3.16258 °/min
Orbital period
113.83 mins
BSTAR
0.00018849
Loading maneuver chart data...
Computing Atmospheric mass density...
Loading historical data...
Loading historical data...
Loading historical data...
Loading historical data...
Loading historical data...
Loading historical data...
Loading historical data...

Documentation

Showing up to 5 results
|